Погода в Рурмонде

Нидерланды     51°11′32″N   5°59′33″E
темп.,
°C
ветер,
м/с
пор.,
м/с
влажн.,
%
обл.,
%
осадки,
мм/ч
давл.,
гПа
погр.,
м
19 апреля, пн
пн1923:00+8с499086 0.1 1022245
02:00+6ссз359087 0.5 1021120
05:00+5ссз3590100 0.1 1020118
08:00+6ссз3595100 1.3 1020183
11:00+9ссв2486100 0.6 1020508
14:00+10всв227777 0.8 1020532
17:00+13юв226246 0.6 1019963
20:00+11ююз22785 1.1 101915
20 апреля, вт
вт2023:00+8з118888 0.0 101912
02:00+7с11895 0.0 101910
05:00+6з11915 0.0 101910
08:00+7юв11884 0.0 101955
11:00+13в12645 0.0 1019689
14:00+16в234622 0.0 10181678
17:00+17в114497 0.0 10161847
20:00+13ссв346699 0.0 1017108
21 апреля, ср
ср2123:00+10ссв35785 0.1 101875
02:00+8с22925 0.1 101837
05:00+7ссз22915 0.0 101835
08:00+8с2481100 0.0 1019139
11:00+10с2470100 0.0 1020303
14:00+14ссз345572 0.0 10191148
17:00+13с666576 0.3 10191141
20:00+10ссв47635 0.3 1020460
22 апреля, чт
чт2223:00+6ссв510639 0.0 1022451
02:00+3ссв367469 0.0 1023169
05:00+1ссв248558 0.0 102375
08:00+3ссв2473100 0.0 1024160
11:00+8с3458100 0.0 10241117
14:00+11ссз454823 0.0 10241657
17:00+12ссз564635 0.0 10241662
20:00+9ссз476135 0.0 1024335
23 апреля, пт
пт2323:00+5с37797 0.0 1026185
02:00+3ссв34875 0.0 102785
05:00+2св22925 0.0 102715
08:00+4всв12844 0.0 1027131
11:00+9св12605 0.0 1028857
14:00+13ссв22455 0.0 10261297
17:00+14св33435 0.0 10251395
20:00+11св34605 0.0 102467